Tracking 35280 objects as of 7-Sep-2026
HD Live streaming from Space Station
objects crossing your sky now

DMSP 5D-2 F13 DEB

Track DMSP 5D-2 F13 DEB now!
10-day predictions


NORAD ID: 42261
Int'l Code: 1995-015GB
Launch date: March 24, 1995
Source: United States (US)
Launch site: AIR FORCE WESTERN TEST RANGE (AFWTR)

Note: This is SATELLITE DEBRIS
Your satellite tracking list
Your tracking list is empty




NASA's NSSDC Master Catalog

Two Line Element Set (TLE):
1 42261U 95015GB  26248.34960269  .00000367  00000-0  12561-3 0  9990
2 42261  98.3082 281.2710 0085704 107.4897 253.5681 14.39669189577575
Source of the keplerian elements: AFSPC